Location: Unspecified
(50.7693°N, 0.0000°E)
Time: 16:58:12
(UTC+00:00)

Transit 4A - Pass Details

Date: 25 June 2019
Orbit: 862 x 982 km, 66.8° (Epoch: 20 July)

Event Time Altitude Azimuth Distance (km) Brightness Sun altitude
Rises 07:41:57 0° 208° (SSW) 3,620 10.8 33.5°
Reaches altitude 10° 07:44:28 10° 206° (SSW) 2,692 10.2 33.9°
Maximum altitude 07:50:46 74° 123° (ESE) 1,017 9.1 34.9°
Drops below altitude 10° 07:57:12 10° 40° (NE) 2,746 10.9 35.9°
Sets 07:59:47 0° 39° (NE) 3,698 11.4 36.3°
